Ernest Shackleton — ZDLS1 — position and weather

sailwx.info

Track history (hours):
 
Tides and Currents Weather Stations Pressure Air Temp Water Temp Dewpoint Dewpoint Depression Visibility Wind Speed Wind Dir Waves Ship Positions

Oceanographic research ship Ernest Shackleton (UK/Norway)

Detailed information on ship capabilities available from University of Delaware's Ocean Information Center and ARCUS's ALIAS (Arctic Logistics Information and Support) project.

Last reported at 2016-Aug-28 08:00 UTC. Time now 2016-Aug-28 10:25 UTC.
Position N 69°42' W 118°12'.

Length 80 m; beam 17 m; draft 7.4 m.

Type: Other ship. MMSI: 740357000.

AWS

Barometer 1026.9 mb
Air temperature 7.4 ° C
Dewpoint 6.2 ° C

Date/timePositionNaut miles runAvg speedWind from/ knotsBaromVisibWave heightAir tempDewpointWater temp
2016-Aug-28 08:00N 69°42' W 118°12'9 8.6 1026.9 7.4 6.2
2016-Aug-28 07:00N 69°48' W 118°30'1212.0 1027.4 7.6 5.8
2016-Aug-28 06:00N 70°00' W 118°30'1212.2 1027.2 7.3 6.0
2016-Aug-28 05:00N 70°12' W 118°36'1212.2 1027.0 7.4 5.9
2016-Aug-28 04:00N 70°24' W 118°42'9 8.5 1027.0 7.2 5.5
2016-Aug-28 03:00N 70°30' W 118°24'1414.4 1026.7 7.4 5.4
2016-Aug-28 02:00N 70°42' W 118°00'4 4.0 1026.2 8.7 4.7
2016-Aug-28 01:00N 70°42' W 117°48'0 0.0 1025.8 9.1 4.0
2016-Aug-28 00:00N 70°42' W 117°48'0 0.0 1025.1 9.1 3.8
2016-Aug-27 23:00N 70°42' W 117°48'0 0.0 1024.8 8.7 3.6
2016-Aug-27 22:00N 70°42' W 117°48'0 0.0 1024.5 8.8 3.3
2016-Aug-27 21:00N 70°42' W 117°48'0 0.0 1024.1 9.1 3.1
2016-Aug-27 20:00N 70°42' W 117°48'0 0.0 1023.4 9.1 2.7
2016-Aug-27 19:00N 70°42' W 117°48'0 0.0 1023.2 8.2 2.3
2016-Aug-27 18:00N 70°42' W 117°48'0 0.0 1023.1 6.6 1.6
2016-Aug-27 17:00N 70°42' W 117°48'0 0.0 1021.9 5.2 0.8
2016-Aug-27 16:00N 70°42' W 117°48'0 0.0 1021.7 4.6 0.8
2016-Aug-27 15:00N 70°42' W 117°48'0 0.0 1022.1 4.3 0.8
2016-Aug-27 14:00N 70°42' W 117°48'0 0.0 1021.5 4.0 0.8
2016-Aug-27 13:00N 70°42' W 117°48'0 0.0 1020.7 3.7 1.0
2016-Aug-27 12:00N 70°42' W 117°48'0 0.0 1021.2 3.6 1.0
2016-Aug-27 11:00N 70°42' W 117°48'0 0.0 1021.0 3.6 0.9
2016-Aug-27 10:00N 70°42' W 117°48'0 0.0 1020.7 3.7 1.2
2016-Aug-27 09:00N 70°42' W 117°48'0 0.0 1020.9 3.9 1.9
2016-Aug-27 06:00N 70°42' W 117°48'0 0.0 1020.3 4.7 0.5
2016-Aug-27 05:00N 70°42' W 117°48'0 0.0 1020.2 4.8 0.4
2016-Aug-27 04:00N 70°42' W 117°48'0 0.0 1020.1 5.3 0.4
2016-Aug-27 03:00N 70°42' W 117°48'0 0.0 1020.0 5.8 0.1
2016-Aug-27 02:00N 70°42' W 117°48'0 0.0 1019.7 6.4-0.2
2016-Aug-27 01:00N 70°42' W 117°48'0 0.0 1019.4 6.6-0.2
2016-Aug-27 00:00N 70°42' W 117°48'0 0.0 1019.0 6.7-0.6
2016-Aug-26 23:00N 70°42' W 117°48'0 0.0 1018.8 7.3-0.9
2016-Aug-26 22:00N 70°42' W 117°48'0 0.0 1018.5 6.2-1.2
2016-Aug-26 21:00N 70°42' W 117°48'0 0.0 1018.1 5.8 0.5
2016-Aug-26 20:00N 70°42' W 117°48'8 7.9 1017.8 5.4 0.5
2016-Aug-26 19:00N 70°42' W 118°12'4 4.0 1018.0 4.7 0.8
2016-Aug-26 18:00N 70°42' W 118°00'4 4.0 1017.6 4.4 1.2
2016-Aug-26 17:00N 70°42' W 117°48'0 0.0 1017.6 5.0 1.1
2016-Aug-26 16:00N 70°42' W 117°48'0 0.0 1017.2 5.2 1.2
2016-Aug-26 15:00N 70°42' W 117°48'0 0.0 1017.2 4.5 0.8
2016-Aug-26 14:00N 70°42' W 117°48'0 0.0 1017.1 3.6 0.9
2016-Aug-26 13:00N 70°42' W 117°48'0 0.0 1016.9 2.8 0.3
2016-Aug-26 12:00N 70°42' W 117°48'0 0.0 1016.7 2.8 0.1
2016-Aug-26 11:00N 70°42' W 117°48'0 0.0 1016.3 3.2-0.0
2016-Aug-26 10:00N 70°42' W 117°48'0 0.0 1016.3 3.7-0.1
2016-Aug-26 09:00N 70°42' W 117°48'0 0.0 1016.2 3.6-0.1
2016-Aug-26 08:00N 70°42' W 117°48'   1016.0 3.3-0.2
Track history (hours):
 
Tides and Currents Weather Stations Pressure Air Temp Water Temp Dewpoint Dewpoint Depression Visibility Wind Speed Wind Dir Waves Ship Positions

Oceanographic research ship Ernest Shackleton (UK/Norway)

Detailed information on ship capabilities available from University of Delaware's Ocean Information Center and ARCUS's ALIAS (Arctic Logistics Information and Support) project.

Last reported at 2016-Aug-28 08:00 UTC. Time now 2016-Aug-28 10:25 UTC.
Position N 69°42' W 118°12'.

Length 80 m; beam 17 m; draft 7.4 m.

Type: Other ship. MMSI: 740357000.

AWS

Barometer 1026.9 mb
Air temperature 7.4 ° C
Dewpoint 6.2 ° C

Date/timePositionNaut miles runAvg speedWind from/ knotsBaromVisibWave heightAir tempDewpointWater temp
2016-Aug-28 08:00N 69°42' W 118°12'9 8.6 1026.9 7.4 6.2
2016-Aug-28 07:00N 69°48' W 118°30'1212.0 1027.4 7.6 5.8
2016-Aug-28 06:00N 70°00' W 118°30'1212.2 1027.2 7.3 6.0
2016-Aug-28 05:00N 70°12' W 118°36'1212.2 1027.0 7.4 5.9
2016-Aug-28 04:00N 70°24' W 118°42'9 8.5 1027.0 7.2 5.5
2016-Aug-28 03:00N 70°30' W 118°24'1414.4 1026.7 7.4 5.4
2016-Aug-28 02:00N 70°42' W 118°00'4 4.0 1026.2 8.7 4.7
2016-Aug-28 01:00N 70°42' W 117°48'0 0.0 1025.8 9.1 4.0
2016-Aug-28 00:00N 70°42' W 117°48'0 0.0 1025.1 9.1 3.8
2016-Aug-27 23:00N 70°42' W 117°48'0 0.0 1024.8 8.7 3.6
2016-Aug-27 22:00N 70°42' W 117°48'0 0.0 1024.5 8.8 3.3
2016-Aug-27 21:00N 70°42' W 117°48'0 0.0 1024.1 9.1 3.1
2016-Aug-27 20:00N 70°42' W 117°48'0 0.0 1023.4 9.1 2.7
2016-Aug-27 19:00N 70°42' W 117°48'0 0.0 1023.2 8.2 2.3
2016-Aug-27 18:00N 70°42' W 117°48'0 0.0 1023.1 6.6 1.6
2016-Aug-27 17:00N 70°42' W 117°48'0 0.0 1021.9 5.2 0.8
2016-Aug-27 16:00N 70°42' W 117°48'0 0.0 1021.7 4.6 0.8
2016-Aug-27 15:00N 70°42' W 117°48'0 0.0 1022.1 4.3 0.8
2016-Aug-27 14:00N 70°42' W 117°48'0 0.0 1021.5 4.0 0.8
2016-Aug-27 13:00N 70°42' W 117°48'0 0.0 1020.7 3.7 1.0
2016-Aug-27 12:00N 70°42' W 117°48'0 0.0 1021.2 3.6 1.0
2016-Aug-27 11:00N 70°42' W 117°48'0 0.0 1021.0 3.6 0.9
2016-Aug-27 10:00N 70°42' W 117°48'0 0.0 1020.7 3.7 1.2
2016-Aug-27 09:00N 70°42' W 117°48'0 0.0 1020.9 3.9 1.9
2016-Aug-27 06:00N 70°42' W 117°48'0 0.0 1020.3 4.7 0.5
2016-Aug-27 05:00N 70°42' W 117°48'0 0.0 1020.2 4.8 0.4
2016-Aug-27 04:00N 70°42' W 117°48'0 0.0 1020.1 5.3 0.4
2016-Aug-27 03:00N 70°42' W 117°48'0 0.0 1020.0 5.8 0.1
2016-Aug-27 02:00N 70°42' W 117°48'0 0.0 1019.7 6.4-0.2
2016-Aug-27 01:00N 70°42' W 117°48'0 0.0 1019.4 6.6-0.2
2016-Aug-27 00:00N 70°42' W 117°48'0 0.0 1019.0 6.7-0.6
2016-Aug-26 23:00N 70°42' W 117°48'0 0.0 1018.8 7.3-0.9
2016-Aug-26 22:00N 70°42' W 117°48'0 0.0 1018.5 6.2-1.2
2016-Aug-26 21:00N 70°42' W 117°48'0 0.0 1018.1 5.8 0.5
2016-Aug-26 20:00N 70°42' W 117°48'8 7.9 1017.8 5.4 0.5
2016-Aug-26 19:00N 70°42' W 118°12'4 4.0 1018.0 4.7 0.8
2016-Aug-26 18:00N 70°42' W 118°00'4 4.0 1017.6 4.4 1.2
2016-Aug-26 17:00N 70°42' W 117°48'0 0.0 1017.6 5.0 1.1
2016-Aug-26 16:00N 70°42' W 117°48'0 0.0 1017.2 5.2 1.2
2016-Aug-26 15:00N 70°42' W 117°48'0 0.0 1017.2 4.5 0.8
2016-Aug-26 14:00N 70°42' W 117°48'0 0.0 1017.1 3.6 0.9
2016-Aug-26 13:00N 70°42' W 117°48'0 0.0 1016.9 2.8 0.3
2016-Aug-26 12:00N 70°42' W 117°48'0 0.0 1016.7 2.8 0.1
2016-Aug-26 11:00N 70°42' W 117°48'0 0.0 1016.3 3.2-0.0
2016-Aug-26 10:00N 70°42' W 117°48'0 0.0 1016.3 3.7-0.1
2016-Aug-26 09:00N 70°42' W 117°48'0 0.0 1016.2 3.6-0.1
2016-Aug-26 08:00N 70°42' W 117°48'   1016.0 3.3-0.2

Dump ship's entire track history